Wetbulb
71.46 72.51 71.38 69.91 59.98 57.85 53.88 55.89 58.98 60.00 60.72 64.45 65.57 63.61 61.93 63.70 60.50 54.86 69.78 71.71 72.22 73.63 75.54 76.13 77.46 77.10 77.07 77.22 77.22 77.19 77.27 77.24 77.43 77.72 77.76 77.33 77.20 76.87 76.68 76.71 77.11 77.21 77.23 77.20 76.96 76.97 75.95 76.28 76.00
69.58 69.89 71.10 67.08 57.61 53.12 53.16 58.21 57.24 61.48 63.28 64.41 64.16 63.38 61.85 60.53 66.40 66.95 67.78 71.53 72.62 73.86 74.64 75.81 77.65 77.66 76.95 76.98 77.60 77.77 77.29 77.31 77.11 77.37 77.78 77.64 77.24 77.68 77.58 76.45 76.66 76.94 76.61 76.17 76.23 76.72 75.92 75.81 76.28
69.71 69.67 65.43 60.81 57.84 53.61 52.71 58.20 61.04 64.09 65.18 63.95 62.89 65.31 64.17 62.87 67.52 67.94 70.42 71.35 72.91 72.37 73.40 74.25 77.14 77.90 76.76 77.07 77.03 77.37 77.66 76.91 77.16 77.31 77.22 77.38 77.23 77.43 77.49 77.01 76.85 76.98 76.96 76.97 75.98 76.50 76.31 76.34 76.41
67.54 69.14 64.69 58.98 55.76 60.68 57.32 58.97 61.16 62.82 63.68 64.18 63.68 61.07 65.57 69.14 68.63 70.76 72.68 72.91 71.31 71.41 72.73 75.46 75.98 76.49 76.82 76.91 76.93 77.08 77.00 76.98 77.26 77.82 77.35 77.63 76.99 77.36 76.89 76.50 76.80 76.92 76.91 77.00 75.95 76.12 75.70 75.81 75.64
67.63 67.71 58.54 56.43 58.05 61.40 60.08 63.32 64.23 62.29 62.65 62.53 63.24 60.39 63.22 68.65 70.63 71.62 72.14 71.72 70.04 71.51 74.19 75.21 77.43 76.44 76.69 76.67 76.48 77.16 76.94 76.92 77.69 77.58 77.43 77.60 77.44 76.65 76.78 76.92 76.98 76.89 76.95 76.89 75.73 75.56 75.18 75.15 75.06
64.95 65.45 56.61 54.15 56.46 60.24 62.68 63.93 64.95 62.65 63.16 63.47 61.95 61.67 63.89 69.81 69.46 69.74 71.94 70.96 71.11 72.57 73.63 74.44 77.00 77.29 77.02 76.71 76.81 77.21 76.98 76.80 77.13 77.38 77.34 76.25 76.66 77.58 77.96 77.20 77.01 76.98 76.15 75.76 75.56 75.20 74.68 74.43 73.85
63.97 61.33 57.92 56.43 57.42 59.39 62.21 64.57 63.51 62.20 62.27 62.42 64.31 60.46 64.98 67.58 70.30 71.81 71.96 71.76 72.31 72.77 73.14 73.65 74.21 75.56 76.90 76.91 77.19 76.94 76.97 76.89 76.94 77.14 77.56 76.90 76.23 77.86 77.86 78.16 76.95 76.45 76.43 75.92 75.09 74.82 74.54 73.85 73.28
66.99 62.90 59.03 59.00 56.47 56.95 64.86 65.01 66.67 63.80 62.08 66.59 65.68 59.52 61.88 65.64 70.10 71.11 70.65 70.90 70.30 71.16 72.38 72.73 73.35 73.30 73.64 74.00 76.90 76.87 76.90 77.06 77.24 77.24 77.29 77.58 77.28 77.26 77.01 77.94 77.52 76.62 76.51 76.20 75.89 75.15 74.35 73.56 73.61
69.76 58.74 57.55 57.74 57.69 60.32 64.80 64.30 66.31 68.00 64.17 64.82 66.03 65.93 67.88 68.61 70.70 69.57 69.91 70.00 69.75 70.72 71.96 71.46 72.48 72.67 72.60 73.05 74.67 76.40 76.82 76.43 76.32 75.49 76.44 76.11 73.47 73.86 74.89 76.31 77.15 76.09 76.03 76.06 75.90 75.39 74.59 74.81 75.12
63.98 57.67 59.82 62.77 61.70 62.25 64.51 64.85 65.63 63.83 63.70 63.36 64.21 67.67 67.90 69.49 68.66 67.89 68.61 67.90 68.06 68.20 70.36 70.49 71.70 72.68 72.23 73.83 73.19 73.20 74.19 71.49 69.03 70.95 70.39 70.40 72.04 72.83 74.51 75.59 76.26 76.14 75.92 75.53 75.42 75.56 75.62 75.62 73.22
64.26 59.94 64.79 64.31 63.83 64.55 64.17 63.96 65.55 62.95 61.41 62.99 62.41 64.53 67.31 67.71 67.38 68.10 67.62 68.45 68.96 69.43 70.03 71.19 72.31 72.13 70.65 71.89 70.36 69.90 71.30 70.09 68.88 69.00 69.13 69.89 70.77 72.63 73.13 72.88 73.15 72.82 75.46 72.74 72.85 74.30 74.79 74.19 73.96
61.98 65.23 65.78 66.17 65.87 64.82 63.71 65.77 63.12 64.56 63.81 66.47 65.75 66.10 65.70 63.99 66.77 67.45 68.35 69.04 69.13 69.56 69.91 71.23 71.51 70.11 71.46 72.62 72.69 70.89 68.07 66.41 67.46 67.98 68.87 68.88 70.33 69.75 69.99 71.37 71.87 71.91 69.38 67.43 67.67 70.14 72.52 71.60 72.58
62.41 64.79 65.67 66.48 65.29 64.57 65.19 63.71 64.13 65.30 66.87 67.50 66.77 66.62 64.56 64.02 65.34 67.68 68.69 69.56 69.48 69.12 70.03 70.20 71.76 71.17 71.49 71.78 71.34 71.19 67.51 68.19 68.73 69.11 69.41 70.02 71.10 71.24 70.08 70.54 70.66 69.82 71.03 71.06 69.08 70.06 71.32 70.98 70.23
64.77 64.50 64.34 64.91 64.02 64.00 61.97 63.27 64.02 65.29 67.05 66.48 65.84 64.79 64.30 64.19 66.81 68.51 68.85 68.16 68.13 70.15 70.56 70.94 71.46 72.11 73.05 72.22 70.72 71.08 69.05 70.53 69.13 69.11 68.60 68.75 70.24 71.08 71.76 69.86 71.04 70.74 70.27 69.79 70.97 70.34 70.44 69.64 68.63
65.11 61.67 62.38 62.62 63.29 62.71 62.54 59.40 60.95 65.31 66.96 65.16 64.80 63.84 65.36 64.41 67.38 67.51 68.33 67.97 69.38 70.51 71.24 70.43 70.72 71.98 72.77 71.25 70.35 69.56 71.91 71.69 70.33 70.05 70.02 72.27 72.15 72.88 69.95 70.40 72.00 69.98 70.34 71.24 72.07 71.23 72.01 69.64 70.11
61.71 60.59 55.80 61.09 62.42 62.50 62.20 55.02 62.67 64.96 65.06 63.31 64.21 64.39 64.97 65.65 67.08 67.16 67.66 69.28 70.61 70.75 69.54 69.55 72.47 70.00 70.26 71.79 71.36 71.37 71.25 72.71 72.64 72.78 73.07 72.68 72.17 72.23 73.18 71.54 69.95 70.89 72.60 73.58 72.91 73.12 70.61 68.74 67.83
57.16 52.56 55.02 56.42 62.03 61.04 60.01 57.33 61.97 64.68 64.56 62.38 62.93 63.23 64.12 64.58 65.50 67.23 67.96 70.48 70.58 70.42 70.30 69.93 68.80 68.67 71.29 70.67 70.76 71.15 71.22 71.17 73.47 72.81 72.44 72.07 72.52 73.31 73.54 72.76 71.52 71.45 71.43 70.44 70.19 70.67 68.87 69.69 68.43
51.32 53.31 55.46 55.36 58.96 60.07 57.77 56.77 59.29 62.39 63.42 61.75 62.19 62.96 62.28 64.24 64.45 67.01 69.17 69.74 69.98 70.75 71.54 71.30 70.26 71.20 70.59 71.56 71.93 71.92 71.10 72.35 71.91 74.32 73.01 73.00 72.63 73.89 74.23 71.61 65.68 68.33 69.77 69.88 72.28 71.28 72.00 70.80 68.20
57.87 56.68 54.94 57.38 60.14 57.74 57.16 56.24 57.51 60.00 62.30 62.39 62.49 61.70 62.51 63.99 66.20 66.59 69.62 69.87 69.70 69.84 70.82 70.70 69.78 71.35 70.52 71.19 68.11 68.55 68.38 70.47 72.15 72.76 73.82 73.03 72.99 74.17 73.06 69.38 68.53 67.48 68.88 68.93 72.33 69.43 71.69 71.20 71.38
56.11 55.27 54.37 57.62 58.89 57.76 55.87 55.10 57.86 60.08 60.58 62.77 63.01 62.37 63.11 63.82 63.73 67.77 68.29 68.75 68.53 69.81 72.14 70.23 72.29 71.29 71.12 71.87 71.52 71.41 69.81 70.42 72.43 73.86 72.82 72.77 73.81 73.11 74.03 69.92 67.68 65.46 69.47 71.24 71.38 72.08 72.04 70.80 68.56
54.75 54.22 54.66 54.92 57.52 57.57 54.78 53.28 55.73 59.67 60.20 61.95 63.42 64.87 64.65 64.73 63.18 66.75 67.87 68.01 69.40 70.43 71.36 71.26 72.06 71.83 72.14 70.78 70.84 69.86 72.05 71.71 71.04 71.99 72.47 72.86 73.53 74.45 73.53 70.68 68.93 69.13 69.52 68.82 71.59 73.00 70.69 70.51 70.26
52.43 58.46 57.69 56.51 53.92 49.48 55.28 46.45 53.42 56.09 57.22 59.22 61.29 63.11 62.62 63.59 65.47 65.67 66.88 67.84 69.29 69.86 71.49 71.78 72.00 71.69 71.93 71.91 70.13 68.15 68.99 67.97 69.72 70.79 72.40 72.57 74.14 73.63 73.56 73.24 71.80 69.45 64.34 69.16 71.04 74.25 73.32 71.84 69.53
54.79 58.41 57.10 55.31 52.22 52.17 51.61 49.25 51.94 56.28 54.57 57.01 59.86 63.00 64.41 64.08 64.92 64.67 67.09 68.34 69.70 71.02 71.36 71.84 71.81 71.87 71.70 71.70 71.30 69.55 69.60 70.32 71.27 72.34 72.49 72.46 73.27 72.97 73.65 73.52 70.80 67.14 66.66 71.09 71.43 73.89 72.01 67.63 66.90
60.51 57.76 55.33 54.56 53.08 46.34 50.69 50.37 50.10 52.52 54.25 57.01 59.76 62.30 64.35 64.20 65.36 66.37 67.39 69.15 70.05 71.11 71.27 71.80 71.64 72.31 72.32 72.06 71.79 70.99 68.97 68.83 70.33 71.30 71.67 71.47 71.98 72.82 73.67 73.86 73.29 72.15 72.05 71.10 72.89 73.29 73.19 68.02 65.28
56.49 51.76 44.81 42.89 45.57 45.65 52.56 50.48 52.14 55.77 57.69 58.54 59.54 61.10 64.07 64.96 63.99 65.64 65.95 65.76 69.00 70.23 71.18 71.90 70.52 70.64 71.53 72.28 71.50 71.55 69.90 68.94 69.57 70.24 70.31 70.18 71.05 71.61 72.10 73.62 72.88 73.05 73.22 73.17 73.39 72.91 73.00 72.61 70.58
53.98 51.54 45.18 39.63 42.93 46.12 51.12 48.36 51.84 57.84 59.69 60.66 61.72 61.85 64.28 64.55 65.70 65.86 64.85 67.82 68.07 69.74 70.22 71.77 71.19 70.99 70.52 72.21 72.14 71.93 70.54 69.68 71.44 71.69 70.84 70.08 71.08 71.76 72.82 73.26 73.31 73.44 73.89 73.13 73.44 72.52 72.60 72.30 72.53
50.45 45.60 49.70 46.34 48.40 45.72 49.03 51.66 55.13 57.92 59.50 59.01 60.05 62.29 62.92 64.56 64.78 66.43 67.30 67.20 68.64 68.31 68.52 71.67 71.62 71.79 70.77 71.89 72.46 72.00 72.57 72.15 71.32 72.15 70.00 70.73 73.17 74.35 72.11 72.16 73.24 73.09 73.74 73.48 73.59 72.38 72.16 71.98 72.67
49.72 52.12 45.72 47.17 41.24 40.16 47.00 46.37 48.13 53.35 56.94 59.75 59.47 61.08 63.25 64.13 64.91 65.72 67.29 67.88 68.18 69.26 68.25 72.15 72.43 71.91 71.61 72.02 72.69 72.11 72.22 72.54 72.66 72.50 69.22 71.88 71.57 69.43 67.48 66.48 70.08 72.95 73.56 74.29 73.26 72.12 70.90 72.19 72.18
45.49 43.58 44.65 47.45 47.33 42.31 41.46 46.79 55.58 55.56 58.60 59.19 60.83 61.63 62.89 64.53 64.11 65.32 67.07 68.07 68.58 68.95 68.64 72.38 72.26 71.74 71.75 72.24 72.13 71.61 72.16 72.67 72.55 72.88 72.65 72.74 70.62 67.45 66.54 67.68 71.22 72.63 72.64 73.04 72.80 72.31 71.95 71.66 71.45
48.78 44.57 44.33 38.47 38.63 45.63 44.89 46.32 59.21 58.24 60.60 60.97 61.45 63.11 63.41 65.20 64.87 64.87 66.43 67.05 66.79 66.42 68.56 71.61 72.52 72.08 71.63 71.63 72.12 72.05 72.03 71.64 72.59 71.96 72.55 72.34 68.24 68.62 72.26 72.80 73.08 72.92 73.37 73.68 73.08 72.87 72.48 71.61 71.38
MSLP
1010.43 1010.85 1010.87 1011.11 1011.54 1010.39 1007.97 1006.09 1005.23 1005.70 1005.91 1006.01 1007.02 1007.48 1008.48 1008.73 1010.04 1012.71 1013.12 1014.02 1014.79 1015.63 1015.85 1016.01 1016.12 1016.27 1016.43 1016.54 1016.62 1016.59 1016.64 1016.77 1016.83 1016.94 1017.00 1017.03 1017.16 1017.26 1017.38 1017.46 1017.51 1017.57 1017.70 1017.82 1017.91 1017.95 1018.00 1018.21 1018.23
1010.15 1010.36 1010.67 1010.99 1011.23 1009.75 1007.58 1006.01 1006.08 1006.26 1006.45 1006.55 1007.39 1008.05 1008.73 1009.93 1010.23 1012.19 1013.35 1013.93 1014.37 1015.33 1015.93 1016.14 1016.25 1016.39 1016.56 1016.74 1016.77 1016.85 1016.91 1017.01 1017.17 1017.27 1017.35 1017.39 1017.37 1017.41 1017.41 1017.58 1017.72 1017.81 1017.89 1017.96 1018.12 1018.19 1018.23 1018.42 1018.43
1010.40 1010.50 1010.91 1011.10 1010.51 1008.72 1007.11 1006.15 1006.33 1006.51 1006.51 1006.85 1007.71 1008.12 1009.05 1010.43 1011.44 1011.85 1012.96 1013.71 1014.26 1015.25 1015.91 1016.22 1016.38 1016.53 1016.71 1016.81 1016.91 1016.97 1017.07 1017.27 1017.41 1017.53 1017.63 1017.71 1017.73 1017.77 1017.79 1017.86 1017.96 1018.00 1018.12 1018.06 1018.19 1018.40 1018.43 1018.64 1018.72
1009.95 1010.60 1011.36 1011.72 1010.10 1008.15 1006.61 1006.31 1006.24 1006.69 1007.18 1007.61 1007.92 1009.23 1009.93 1010.88 1011.59 1012.54 1013.19 1013.83 1014.72 1015.37 1015.95 1016.27 1016.49 1016.65 1016.78 1016.91 1016.97 1017.03 1017.19 1017.32 1017.57 1017.66 1017.73 1017.78 1017.86 1017.93 1018.17 1018.36 1018.41 1018.36 1018.39 1018.28 1018.38 1018.59 1018.61 1018.78 1018.81
1009.73 1009.87 1012.35 1011.76 1010.01 1008.25 1006.54 1006.67 1007.29 1007.33 1007.59 1008.19 1008.56 1010.20 1011.09 1011.67 1012.31 1012.49 1013.25 1014.20 1014.83 1015.64 1016.03 1016.29 1016.48 1016.76 1016.87 1016.94 1017.15 1017.32 1017.49 1017.57 1017.72 1017.85 1018.01 1018.10 1018.05 1018.08 1018.33 1018.51 1018.63 1018.67 1018.50 1018.53 1018.66 1018.68 1018.72 1018.70 1018.86
1009.80 1010.51 1011.39 1011.52 1009.93 1008.75 1007.96 1007.82 1008.10 1007.94 1007.90 1008.85 1009.53 1010.41 1011.70 1012.08 1012.41 1012.91 1013.31 1014.26 1014.61 1015.59 1016.16 1016.35 1016.55 1016.80 1016.96 1017.05 1017.33 1017.65 1017.87 1018.03 1018.13 1018.23 1018.44 1018.69 1018.72 1018.50 1018.43 1018.58 1018.68 1018.80 1018.83 1018.78 1018.73 1018.69 1018.83 1018.95 1018.90
1009.48 1010.34 1010.37 1010.55 1009.89 1009.14 1008.75 1007.93 1008.72 1007.80 1008.14 1009.04 1009.77 1010.53 1011.66 1011.93 1012.50 1012.94 1013.52 1014.27 1014.83 1015.55 1016.18 1016.57 1016.66 1016.75 1016.99 1017.29 1017.46 1017.70 1017.83 1018.02 1018.20 1018.36 1018.53 1018.76 1019.03 1018.81 1018.92 1018.79 1018.81 1018.85 1018.90 1018.93 1018.89 1018.81 1018.84 1019.00 1019.04
1008.81 1009.90 1010.19 1010.19 1010.00 1009.96 1009.28 1008.61 1008.12 1007.68 1008.45 1008.91 1009.76 1010.53 1011.53 1011.82 1012.27 1012.87 1013.89 1014.65 1015.46 1015.43 1016.04 1016.71 1016.75 1016.82 1017.25 1017.54 1017.77 1018.09 1018.16 1018.38 1018.49 1018.70 1018.91 1019.02 1019.13 1019.16 1019.06 1019.13 1018.96 1018.93 1018.99 1019.06 1019.08 1018.99 1018.97 1019.17 1019.17
1008.17 1009.43 1010.19 1010.29 1010.01 1010.05 1009.72 1009.20 1008.47 1008.13 1008.42 1009.08 1009.21 1010.25 1010.79 1011.52 1012.37 1013.49 1014.47 1015.41 1015.49 1015.91 1016.25 1016.62 1016.77 1017.08 1017.35 1017.65 1017.93 1018.14 1018.32 1018.52 1018.88 1019.28 1019.30 1019.25 1019.42 1019.37 1019.32 1019.40 1019.31 1019.37 1019.43 1019.41 1019.43 1019.30 1019.23 1019.22 1019.23
1008.25 1009.12 1009.58 1010.22 1010.26 1010.39 1009.86 1009.43 1008.82 1009.25 1009.44 1009.50 1009.55 1010.47 1010.84 1011.79 1012.59 1013.47 1014.27 1015.34 1015.69 1016.03 1016.32 1017.08 1016.80 1016.94 1017.21 1017.51 1018.14 1018.40 1018.53 1019.09 1019.45 1019.35 1019.63 1019.97 1019.99 1019.60 1019.62 1019.69 1019.75 1019.77 1019.77 1019.83 1019.89 1019.92 1019.77 1019.67 1019.50
1007.63 1008.36 1008.73 1009.49 1009.85 1010.70 1010.45 1010.17 1008.90 1009.49 1009.82 1009.01 1009.29 1010.05 1010.86 1011.86 1012.55 1013.00 1014.13 1014.74 1015.52 1015.94 1016.81 1016.87 1016.43 1016.78 1017.09 1017.74 1018.55 1018.66 1019.07 1019.63 1019.75 1019.47 1020.01 1020.23 1020.40 1019.89 1019.91 1020.05 1019.96 1019.97 1019.81 1020.09 1020.41 1019.75 1019.52 1019.26 1019.35
1007.67 1008.06 1008.75 1009.50 1010.29 1010.99 1011.28 1011.35 1010.74 1009.67 1009.06 1008.95 1009.08 1009.89 1010.76 1011.50 1012.49 1013.15 1014.05 1014.69 1015.23 1015.80 1016.40 1016.47 1016.39 1016.78 1017.21 1018.09 1018.77 1019.47 1019.59 1019.55 1020.14 1019.84 1019.70 1020.38 1020.91 1020.38 1020.10 1020.59 1020.57 1020.46 1020.32 1020.35 1020.45 1020.13 1018.65 1018.94 1019.21
1007.65 1008.42 1009.21 1009.56 1010.59 1011.34 1011.56 1011.20 1010.31 1009.24 1008.97 1009.05 1009.10 1009.99 1010.82 1011.40 1011.67 1012.80 1013.54 1014.53 1015.11 1015.54 1016.24 1016.37 1016.35 1016.81 1016.76 1018.01 1018.43 1019.65 1019.99 1018.83 1019.73 1020.05 1020.14 1020.19 1020.41 1020.22 1020.46 1020.52 1020.59 1020.18 1019.89 1020.02 1019.72 1019.61 1019.20 1019.26 1018.79
1007.80 1009.05 1009.79 1010.42 1011.25 1012.11 1012.06 1012.04 1011.20 1009.83 1009.40 1009.35 1009.50 1010.21 1010.91 1011.16 1011.70 1012.75 1013.43 1014.29 1015.24 1015.63 1016.16 1016.42 1016.57 1016.41 1016.63 1017.27 1018.06 1019.45 1019.63 1019.45 1019.81 1020.33 1019.92 1020.12 1020.61 1019.88 1020.13 1020.49 1020.18 1019.96 1019.70 1020.02 1019.55 1019.39 1019.33 1019.09 1018.78
1008.18 1009.59 1010.84 1011.39 1011.99 1012.59 1012.72 1012.45 1010.41 1009.37 1009.29 1009.57 1009.91 1010.37 1010.75 1010.99 1011.69 1012.72 1013.41 1014.13 1014.81 1015.65 1016.10 1016.43 1016.63 1016.74 1016.87 1017.40 1017.80 1018.61 1019.64 1020.03 1020.29 1020.03 1020.07 1019.99 1020.03 1019.69 1020.16 1021.08 1020.17 1020.16 1019.95 1019.77 1019.43 1019.46 1019.32 1019.27 1018.99
1009.01 1010.11 1011.34 1012.50 1012.63 1013.14 1013.03 1011.93 1010.73 1009.75 1009.53 1009.85 1010.17 1010.33 1010.55 1011.09 1011.57 1012.31 1013.05 1013.93 1014.97 1015.60 1016.23 1016.34 1016.60 1017.03 1017.51 1017.57 1017.92 1018.13 1018.43 1018.85 1019.25 1019.43 1019.59 1019.51 1019.51 1019.87 1020.29 1019.78 1019.81 1020.17 1019.77 1019.22 1019.17 1019.28 1019.29 1019.41 1019.33
1009.84 1010.92 1011.61 1012.53 1013.30 1013.35 1013.29 1012.31 1011.13 1010.65 1009.71 1010.18 1010.34 1010.35 1010.57 1011.23 1011.67 1012.29 1013.03 1014.14 1015.04 1015.56 1016.07 1016.58 1016.86 1017.29 1017.87 1017.90 1018.07 1018.29 1018.43 1018.77 1018.99 1019.12 1019.33 1019.41 1019.52 1019.65 1019.80 1019.67 1020.07 1019.55 1019.74 1019.71 1019.96 1019.60 1019.39 1019.58 1019.75
1009.80 1010.59 1012.10 1013.05 1013.88 1014.33 1014.26 1013.58 1012.24 1011.93 1011.47 1010.66 1010.57 1010.53 1010.87 1011.34 1011.78 1012.14 1013.34 1014.12 1014.70 1015.31 1015.91 1016.63 1016.89 1017.53 1017.54 1017.94 1018.49 1018.36 1018.79 1019.00 1019.13 1019.21 1019.45 1019.56 1019.63 1019.51 1019.41 1020.21 1019.99 1019.51 1019.93 1019.94 1019.77 1019.82 1019.32 1019.61 1019.71
1008.23 1009.65 1011.47 1013.15 1014.25 1014.74 1014.87 1014.56 1013.31 1012.69 1012.47 1011.90 1010.97 1010.68 1011.07 1011.42 1011.78 1012.18 1013.40 1014.17 1014.75 1015.39 1016.12 1016.69 1017.09 1017.72 1018.07 1018.42 1018.93 1018.83 1019.22 1019.23 1019.44 1019.38 1019.37 1019.40 1019.41 1019.35 1019.70 1019.91 1019.72 1020.05 1020.52 1020.42 1020.20 1019.88 1019.79 1019.88 1019.73
1008.40 1010.22 1011.81 1013.57 1013.88 1014.85 1015.13 1015.09 1015.01 1013.33 1013.45 1013.01 1012.26 1011.21 1011.06 1011.44 1011.97 1012.69 1013.39 1014.09 1014.87 1015.43 1016.18 1016.85 1017.09 1017.61 1018.05 1018.41 1018.53 1018.69 1019.07 1019.31 1019.31 1019.32 1019.43 1019.33 1019.34 1019.36 1019.83 1019.73 1020.07 1020.35 1020.40 1020.52 1020.35 1020.06 1020.32 1020.26 1020.47
1009.27 1009.64 1011.46 1012.24 1013.77 1015.04 1015.28 1015.29 1014.52 1013.91 1013.74 1013.47 1012.84 1012.27 1010.94 1011.49 1011.99 1012.87 1013.38 1014.03 1014.90 1015.53 1016.19 1016.81 1017.18 1017.72 1018.12 1018.35 1018.53 1018.65 1018.81 1019.29 1019.61 1019.63 1019.71 1019.39 1019.24 1019.35 1020.08 1019.99 1020.04 1020.44 1020.81 1020.97 1020.39 1020.41 1020.63 1020.89 1020.87
1008.31 1009.75 1011.52 1012.31 1013.15 1014.87 1015.29 1015.40 1014.72 1014.31 1014.17 1014.03 1013.79 1013.19 1011.51 1011.56 1011.95 1012.52 1013.12 1013.95 1014.62 1015.23 1015.58 1016.53 1017.07 1017.58 1018.12 1018.27 1018.67 1018.91 1019.19 1019.63 1019.80 1019.60 1019.56 1019.46 1019.29 1019.37 1019.55 1020.57 1020.77 1020.83 1020.97 1020.88 1020.66 1020.36 1020.51 1020.91 1021.33
1008.17 1010.44 1011.67 1012.24 1012.71 1014.47 1015.25 1015.39 1014.39 1014.33 1014.13 1013.62 1013.51 1013.09 1012.20 1011.69 1011.59 1012.37 1012.99 1013.61 1014.29 1015.01 1015.71 1016.08 1016.79 1017.38 1018.00 1018.38 1018.67 1019.04 1019.36 1019.47 1019.49 1019.51 1019.56 1019.57 1019.40 1019.34 1019.33 1019.91 1020.33 1020.53 1020.56 1020.51 1020.73 1020.55 1020.74 1021.31 1022.06
1007.92 1009.98 1011.95 1012.67 1012.81 1013.79 1013.58 1014.19 1013.95 1013.62 1011.97 1012.57 1012.54 1012.54 1012.09 1012.53 1012.13 1012.39 1012.75 1013.35 1014.18 1014.85 1015.68 1016.34 1016.68 1017.28 1017.80 1018.33 1018.53 1019.01 1019.43 1019.74 1019.69 1019.79 1019.90 1019.71 1019.65 1019.49 1019.43 1019.60 1019.95 1020.36 1020.57 1020.88 1020.90 1020.72 1020.69 1021.00 1021.89
1006.75 1009.10 1011.41 1012.44 1012.75 1013.37 1013.25 1013.43 1011.89 1011.57 1011.29 1010.95 1010.65 1011.86 1012.27 1012.21 1012.54 1012.41 1012.79 1013.41 1014.10 1014.77 1015.45 1016.34 1016.87 1017.13 1017.50 1018.07 1018.45 1018.79 1019.30 1019.53 1019.74 1019.77 1019.76 1019.75 1019.78 1019.74 1019.66 1019.84 1020.20 1020.31 1020.41 1020.59 1020.62 1020.95 1021.07 1021.20 1021.52
1006.09 1007.44 1009.31 1010.87 1011.99 1012.81 1012.94 1012.85 1011.26 1010.49 1010.02 1010.33 1010.85 1011.42 1011.91 1012.29 1012.26 1012.29 1012.25 1013.01 1013.87 1014.65 1015.25 1016.08 1016.70 1017.21 1017.25 1017.69 1018.09 1018.52 1018.87 1019.13 1019.39 1019.53 1019.41 1019.64 1019.54 1019.32 1019.26 1019.46 1019.82 1019.98 1020.20 1020.43 1020.66 1020.64 1021.06 1021.15 1021.41
1004.32 1005.89 1005.85 1009.20 1011.22 1011.88 1012.53 1012.98 1011.65 1009.93 1009.59 1010.31 1010.76 1011.19 1011.17 1011.21 1011.41 1011.98 1012.67 1012.63 1013.66 1014.13 1014.44 1015.57 1016.67 1017.07 1017.19 1017.48 1017.88 1018.24 1018.39 1018.81 1019.01 1019.05 1019.07 1019.33 1019.09 1018.89 1019.17 1019.44 1019.58 1019.72 1019.85 1020.05 1020.44 1020.91 1020.99 1021.05 1021.11
1003.22 1004.04 1005.33 1007.21 1009.80 1011.22 1011.95 1012.60 1012.20 1010.51 1010.09 1009.91 1010.07 1010.17 1010.51 1010.53 1010.97 1011.81 1012.57 1013.09 1013.66 1013.68 1014.23 1015.07 1016.05 1016.44 1016.81 1017.02 1017.60 1018.05 1018.33 1018.34 1018.51 1018.93 1019.10 1019.15 1019.03 1019.19 1019.49 1019.51 1019.67 1019.59 1019.62 1019.82 1020.18 1020.77 1020.88 1021.03 1021.12
1003.21 1003.90 1004.91 1006.16 1007.66 1009.18 1010.21 1010.77 1009.26 1008.91 1008.36 1009.26 1009.32 1009.42 1009.45 1010.16 1010.77 1011.25 1011.65 1012.41 1012.89 1013.12 1013.84 1014.56 1015.61 1016.20 1016.67 1016.67 1017.11 1017.62 1018.09 1018.25 1018.36 1018.60 1018.91 1019.15 1019.18 1019.51 1019.33 1019.23 1019.47 1019.61 1019.65 1019.64 1020.11 1020.49 1020.71 1020.93 1021.11
1002.92 1003.71 1004.67 1006.26 1007.05 1007.58 1008.19 1008.34 1007.23 1007.57 1007.41 1006.57 1007.37 1008.00 1008.80 1009.06 1009.85 1010.81 1011.19 1012.05 1012.63 1012.97 1013.42 1014.27 1015.07 1015.70 1016.07 1016.37 1016.78 1017.29 1017.80 1018.05 1018.29 1018.51 1018.63 1018.98 1019.11 1019.11 1019.03 1019.15 1019.49 1019.45 1019.51 1019.69 1020.01 1020.42 1020.73 1020.99 1021.28
Wind_Speed
2 4 3 2 2 2 6 9 13 20 22 17 14 15 7 7 7 8 18 20 20 14 11 12 15 15 14 14 14 14 14 14 14 14 16 17 17 18 18 18 18 17 17 17 17 16 17 16 17
3 8 1 1 1 2 2 10 19 20 17 20 23 22 23 21 20 22 16 22 21 15 11 9 14 15 14 14 12 13 14 14 14 14 14 15 16 16 17 18 18 16 16 16 16 15 15 15 15
5 5 3 2 2 2 5 14 19 17 17 21 16 13 9 21 16 7 24 22 18 15 11 10 14 14 14 13 14 12 13 13 14 15 14 15 15 16 17 17 16 15 15 16 15 13 13 15 12
3 4 6 3 4 5 14 13 16 19 20 21 22 14 18 15 9 13 23 22 18 15 10 13 15 14 14 14 13 13 13 13 13 14 15 15 16 15 15 14 14 14 15 14 14 11 10 12 10
2 5 4 5 4 6 11 14 17 17 16 20 24 20 14 15 19 21 21 19 17 13 11 11 15 15 13 13 12 13 13 13 14 14 14 13 14 16 14 15 14 14 13 14 12 10 9 9 6
1 3 6 6 4 5 10 22 10 15 20 18 22 22 15 20 15 13 14 19 16 14 11 11 15 14 13 14 14 13 13 13 13 13 13 14 12 14 14 14 14 14 13 12 11 9 7 5 3
3 2 3 1 5 7 3 21 9 19 20 17 18 23 12 13 19 16 16 17 17 15 12 9 8 12 15 14 14 15 15 14 14 12 13 14 11 14 14 14 13 12 11 11 11 9 6 3 2
4 2 1 2 3 2 6 8 9 17 20 22 20 14 11 11 21 16 17 16 11 10 11 10 9 7 7 6 14 14 15 13 14 13 13 13 12 14 14 10 10 11 11 10 10 7 4 3 2
2 2 3 1 5 3 5 5 10 6 20 15 10 18 17 15 22 17 17 14 8 8 5 4 9 7 7 6 9 13 15 13 12 8 9 8 4 5 7 7 7 7 6 6 5 4 2 3 6
4 2 1 15 8 3 6 5 11 9 9 14 16 24 22 25 21 19 16 13 11 10 3 4 8 10 9 8 6 6 7 6 7 4 5 4 4 4 6 5 5 5 5 4 2 1 2 6 4
5 3 5 3 11 5 2 4 7 21 10 18 22 19 22 19 14 17 15 15 17 14 5 9 9 8 7 7 4 2 4 5 4 5 4 3 5 3 3 1 0 1 4 1 1 4 4 6 6
3 6 5 10 6 8 3 2 10 11 16 18 19 14 17 12 17 15 18 13 10 11 12 11 7 5 5 6 3 4 5 2 5 3 3 1 2 2 3 3 3 3 3 2 3 3 7 4 5
6 8 6 9 4 9 8 10 9 5 23 17 19 17 14 10 9 17 17 16 12 13 13 9 7 6 7 10 6 7 4 3 4 4 4 3 2 5 4 4 2 3 3 4 4 5 6 6 3
7 7 11 8 5 11 13 8 12 2 20 15 14 16 11 10 15 16 18 16 12 13 10 6 7 6 8 7 8 12 9 6 2 3 5 5 3 2 5 3 5 4 3 3 4 3 3 2 2
13 13 9 5 4 8 15 13 4 3 14 18 13 12 13 9 21 20 17 15 16 13 11 8 8 7 7 6 5 6 10 8 6 6 8 6 5 3 6 4 7 5 4 7 3 3 4 3 1
6 7 5 4 2 4 3 5 3 14 18 16 16 13 13 14 14 14 13 15 16 14 9 8 9 7 7 6 4 4 3 10 9 6 5 4 3 4 4 1 3 1 3 4 3 4 3 2 4
3 3 10 1 8 5 5 2 6 8 14 14 14 11 12 12 10 13 10 20 15 13 11 7 7 8 8 5 2 3 5 4 4 4 4 4 1 1 1 3 0 4 4 5 4 2 1 2 1
15 7 7 7 4 3 2 8 14 9 10 9 12 12 10 12 8 13 19 17 12 10 11 8 7 9 8 3 2 2 4 4 3 4 4 5 3 2 2 5 4 5 5 4 4 3 4 2 1
4 11 15 9 6 2 6 2 13 10 9 8 5 12 13 12 9 11 16 15 11 9 12 10 9 8 7 2 2 2 4 3 3 4 5 4 3 3 5 3 4 5 5 5 5 3 4 4 2
10 15 7 8 13 1 4 5 9 14 5 4 9 6 17 13 9 18 19 15 11 8 11 8 10 8 5 4 3 2 3 2 2 3 4 3 4 4 7 4 5 4 4 6 4 4 4 2 4
3 2 9 9 11 4 5 4 6 4 5 8 9 12 14 14 9 18 18 17 13 13 12 9 8 7 6 7 4 3 4 3 2 2 2 2 4 3 9 5 2 1 0 3 5 4 3 2 2
5 12 9 20 9 1 5 2 4 6 8 6 9 13 7 9 9 9 16 18 15 12 15 11 8 7 6 4 4 5 4 4 3 3 3 3 4 4 5 9 5 3 2 2 4 1 4 4 5
8 14 11 14 9 5 7 2 4 4 9 13 13 11 4 9 15 9 15 18 16 14 10 12 9 8 8 5 5 4 4 3 2 3 7 4 3 4 4 7 6 2 1 3 3 3 6 4 3
24 17 5 5 2 1 8 6 5 13 28 23 20 11 4 7 8 11 8 18 15 14 12 10 12 8 8 8 7 6 6 3 2 3 4 3 3 3 4 5 5 4 1 3 4 2 4 3 5
16 6 1 1 2 1 9 8 8 24 21 26 21 14 10 8 11 11 9 8 14 16 15 12 9 8 9 8 7 7 5 5 2 4 4 3 2 2 5 6 5 4 3 4 2 2 2 0 1
15 10 8 3 2 2 3 2 6 10 18 19 18 16 13 20 15 12 10 7 10 14 11 14 12 7 9 8 7 7 7 4 4 5 4 3 2 4 6 6 6 6 5 3 4 1 0 2 2
4 6 8 8 2 3 1 2 12 14 13 19 20 19 18 16 12 15 9 10 7 15 12 12 12 9 9 8 6 7 7 6 5 6 4 3 2 3 6 3 6 6 6 6 3 1 3 2 2
3 5 3 3 6 4 6 7 5 10 7 15 23 19 16 6 9 12 11 16 12 11 10 13 14 14 12 9 7 6 6 6 5 5 6 5 4 4 4 3 1 6 4 5 4 1 2 2 3
3 4 4 5 6 5 5 5 14 19 17 10 12 19 19 13 13 12 10 9 13 11 14 16 14 13 11 10 9 7 6 6 5 5 6 7 5 6 7 4 3 6 5 4 3 4 3 2 3
7 5 6 4 9 2 5 5 12 17 16 15 10 17 20 18 17 16 14 12 11 9 10 15 14 13 11 8 10 8 7 7 7 6 6 7 6 5 4 4 5 5 5 4 4 4 1 3 4
Wind_Direction
196 193 224 260 343 103 312 92 83 84 78 94 101 121 112 169 97 132 113 124 125 127 129 127 126 120 116 115 112 109 108 107 105 103 101 107 101 102 104 103 101 99 100 100 94 93 96 95 93
234 243 126 42 81 168 207 76 87 90 89 94 88 90 81 83 97 117 119 130 126 135 124 122 120 119 118 118 116 111 111 109 107 106 105 107 106 103 102 99 99 96 97 100 94 95 100 100 92
242 248 74 9 298 248 115 99 94 96 97 104 94 76 81 112 111 117 132 132 129 115 117 127 120 118 118 119 111 111 114 113 112 112 112 109 109 108 110 106 100 98 104 100 99 93 99 100 96
245 81 6 301 262 283 111 117 117 101 97 103 115 84 96 113 84 105 111 109 112 114 124 125 125 123 120 118 124 118 113 117 119 118 119 121 112 109 106 107 105 104 102 99 96 101 92 91 88
225 78 88 298 268 306 115 92 57 94 98 93 100 108 91 92 117 114 113 114 115 118 125 119 124 126 119 120 119 115 114 113 119 121 118 115 115 113 116 114 105 103 105 102 106 102 91 80 69
115 140 154 231 237 314 74 67 132 98 106 103 104 108 113 132 123 134 128 121 124 122 125 118 122 118 122 121 125 115 109 111 120 117 119 117 119 114 115 117 111 112 108 109 109 107 104 107 93
141 39 262 73 349 8 41 125 196 125 118 119 123 119 134 135 129 135 130 120 123 123 120 118 115 123 122 123 123 122 117 120 124 128 126 122 121 112 107 111 117 120 123 121 126 135 146 158 180
160 107 133 124 213 246 21 130 81 136 125 124 134 140 139 142 124 121 113 115 96 124 129 128 135 127 113 117 123 121 121 124 127 136 132 132 131 121 119 116 128 137 141 136 139 147 166 201 259
183 23 147 95 205 181 321 89 143 96 128 143 140 131 145 117 112 101 109 102 103 88 104 107 144 128 124 131 130 126 126 123 107 85 131 123 131 122 118 138 134 135 131 137 138 152 197 276 283
140 121 350 182 219 51 334 338 130 98 78 136 140 140 133 126 130 142 131 124 126 133 156 97 139 146 151 131 121 128 120 78 78 72 24 15 286 163 126 152 142 140 141 137 168 201 257 283 285
178 176 121 148 151 215 151 321 282 108 171 152 135 147 135 142 147 138 132 144 153 157 156 171 163 163 138 126 82 93 85 90 73 67 38 342 317 128 134 190 261 258 209 44 81 224 241 226 245
186 121 117 127 162 158 129 55 262 237 160 140 132 142 133 140 149 146 141 132 136 137 140 146 168 159 138 109 131 104 83 112 130 121 228 263 272 312 166 70 42 322 312 65 196 219 263 225 241
79 82 87 110 108 115 128 262 228 358 142 134 139 131 135 156 172 137 131 141 153 117 138 149 133 160 157 141 151 124 104 322 85 145 238 226 305 251 129 146 134 246 248 264 237 206 227 243 185
132 123 117 71 133 96 94 313 263 154 125 146 143 139 154 175 128 133 139 144 139 122 127 135 122 73 113 119 136 126 147 189 227 158 238 240 240 189 109 111 190 245 234 259 281 285 283 282 83
133 127 109 66 26 92 98 265 107 160 160 142 137 157 168 178 132 145 149 149 130 133 141 148 117 121 115 117 121 130 154 159 176 208 203 207 182 38 92 141 230 248 255 257 222 288 275 251 277
144 118 132 16 46 32 322 205 154 195 148 147 152 178 167 132 126 123 134 128 129 135 145 146 136 135 123 115 130 158 125 149 169 175 144 111 92 82 76 330 254 170 85 322 314 283 320 222 162
15 252 108 30 17 28 348 147 344 357 153 155 164 183 144 138 127 138 121 128 145 145 145 149 137 136 99 83 76 121 153 114 121 136 127 151 146 308 73 175 289 46 54 354 357 347 207 57 310
231 150 140 130 145 8 29 335 320 360 351 172 178 160 136 141 146 143 125 130 136 132 141 139 136 114 113 155 54 133 95 114 142 129 148 156 162 136 319 80 54 42 40 351 350 24 354 46 142
162 120 122 118 142 133 165 281 315 314 336 332 277 158 137 143 148 134 128 132 132 123 131 143 125 137 140 111 117 75 124 140 118 154 149 145 164 140 89 105 81 54 43 328 323 299 17 358 0
329 126 85 97 132 95 156 266 284 284 299 343 321 212 152 156 156 130 136 140 143 135 135 134 143 154 134 121 123 117 135 146 157 137 124 127 123 85 87 92 73 51 11 328 267 31 349 5 346
239 322 169 146 132 69 118 290 307 231 314 322 330 299 147 153 141 147 146 149 142 137 138 144 150 146 119 138 122 74 84 57 59 122 141 191 167 128 117 129 131 179 52 336 335 334 75 10 39
95 54 186 129 124 119 197 286 277 230 271 288 282 291 175 158 157 152 157 153 157 158 146 151 159 145 125 154 117 150 144 151 202 169 170 193 211 158 151 139 172 180 176 351 314 338 50 78 42
132 119 163 146 111 134 192 204 240 264 257 253 247 257 255 173 165 196 162 162 160 154 159 155 153 152 148 169 171 161 151 138 218 150 149 165 194 218 175 141 130 125 277 302 329 346 76 90 113
116 129 111 57 47 106 194 208 197 198 206 217 226 238 229 245 199 198 127 163 163 164 162 163 162 159 151 159 169 142 141 133 99 134 147 179 214 214 143 143 143 180 245 340 293 55 65 74 99
106 139 320 230 192 355 338 194 254 202 215 217 211 198 192 237 218 196 160 138 167 169 165 164 164 165 157 157 161 159 158 168 133 162 159 132 193 245 183 157 165 170 191 253 297 81 17 296 145
161 168 160 263 172 124 322 253 260 289 207 198 216 210 191 205 208 188 186 139 164 152 152 169 164 167 161 164 176 161 171 169 193 183 153 166 203 220 207 162 163 173 180 228 274 36 12 343 160
211 220 213 99 69 96 124 344 299 20 174 197 207 216 207 194 183 167 179 183 182 168 158 162 164 166 170 169 170 171 182 173 181 152 149 144 247 143 119 87 178 192 190 197 194 250 293 305 308
179 267 52 32 142 200 133 147 264 304 202 186 199 206 208 146 157 162 164 186 197 173 152 164 170 169 180 162 167 176 196 183 174 149 166 170 182 134 173 217 287 197 192 166 154 155 339 338 311
289 296 304 143 137 143 162 179 205 222 189 189 214 214 199 181 187 172 162 195 195 173 168 166 170 165 178 169 168 174 187 193 195 180 194 170 200 182 197 187 274 186 158 163 164 182 208 187 247
215 224 207 127 289 151 133 241 184 198 202 172 203 203 202 186 189 174 171 182 199 171 158 173 164 166 178 165 168 176 182 187 185 202 200 158 192 217 192 218 208 176 185 185 170 194 254 204 254